This is the latest recevied weather packets stored in our database for station/object KE0PRS. If no packets are shown the sender has not sent any weather packets the latest 10 day(s).
| Time | Temp. | Humidity | Pressure | Rain* | Wind** | Luminosity | Snow |
|---|---|---|---|---|---|---|---|
| 1777887080 | 15.56° C | 48% | 1005 hPa | 0 mm | - | 0 W/m² | - |
| 1777886776 | 15.56° C | 48% | 1005 hPa | 0 mm | - | 0 W/m² | - |
| 1777886472 | 15.56° C | 48% | 1005 hPa | 0 mm | - | 0 W/m² | - |
| 1777886171 | 15° C | 49% | 1005.5 hPa | 0 mm | - | 0 W/m² | - |
| 1777885868 | 15° C | 49% | 1005.2 hPa | 0 mm | - | 0 W/m² | - |
| 1777885567 | 15° C | 49% | 1005.5 hPa | 0 mm | - | 0 W/m² | - |
| 1777885264 | 15.56° C | 49% | 1005.5 hPa | 0 mm | - | 0 W/m² | - |
| 1777884962 | 15.56° C | 49% | 1005.6 hPa | 0 mm | - | 0 W/m² | - |
| 1777884657 | 15.56° C | 48% | 1005.5 hPa | 0 mm | - | 0 W/m² | - |
| 1777884354 | 15.56° C | 48% | 1005.5 hPa | 0 mm | - | 0 W/m² | - |
| 1777884050 | 15.56° C | 48% | 1005.6 hPa | 0 mm | - | 0 W/m² | - |
| 1777883749 | 15.56° C | 48% | 1005.6 hPa | 0 mm | - | 0 W/m² | - |
| 1777883445 | 15.56° C | 47% | 1005.5 hPa | 0 mm | - | 0 W/m² | - |
| 1777883141 | 16.11° C | 47% | 1005.7 hPa | 0 mm | - | 0 W/m² | - |
| 1777882838 | 16.11° C | 46% | 1005.5 hPa | 0 mm | - | 0 W/m² | - |
| 1777882535 | 16.67° C | 45% | 1005.5 hPa | 0 mm | - | 0 W/m² | - |
| 1777882230 | 17.22° C | 44% | 1005.5 hPa | 0 mm | - | 0 W/m² | - |
| 1777881927 | 17.22° C | 43% | 1005.6 hPa | 0 mm | - | 0 W/m² | - |
| 1777881624 | 17.78° C | 42% | 1005.6 hPa | 0 mm | - | 0 W/m² | - |
| 1777881321 | 17.78° C | 41% | 1005.6 hPa | 0 mm | - | 0 W/m² | - |
| 1777881018 | 17.78° C | 41% | 1005.8 hPa | 0 mm | - | 0 W/m² | - |
| 1777880716 | 18.33° C | 41% | 1006 hPa | 0 mm | - | 0 W/m² | - |
| 1777880414 | 18.33° C | 40% | 1005.8 hPa | 0 mm | - | 0 W/m² | - |
| 1777880112 | 18.89° C | 39% | 1005.7 hPa | 0 mm | - | 0 W/m² | - |
| 1777879810 | 18.89° C | 39% | 1005.8 hPa | 0 mm | - | 0 W/m² | - |
* Rain latest hour (hover to see other rain measurements)
** Current wind speed in m/s (hover to see current wind gust speed)